This demonstration page uses our WeatherBlox Daily Observations layout. Learn more.

Left ArrowRight Arrow

39.01783, -85.05884

Hourly Observations for July 15, 2020

Temp ( °F °C ) Dew Point ( °F °C ) Humidity (%) Winds ( mph kmh ) Pressure ( in mb ) Visibility ( mi km ) Precip ( " mm )
12:52 am 00:52 Partly Cloudy 73 22.8 61 16.1 66 66 Calm 30.03 1017 10 16 0.00 0.00
1:52 am 01:52 Partly Cloudy 73 22.8 60 15.6 64 64 Calm 30.05 1018 10 16 0.00 0.00
2:52 am 02:52 Partly Cloudy 72 22.2 61 16.1 68 68 Calm 30.04 1017 10 16 0.00 0.00
3:52 am 03:52 Clear 72 22.2 61 16.1 68 68 ENE 5 7 30.03 1017 10 16 0.00 0.00
4:52 am 04:52 Clear 71 21.7 62 16.7 73 73 E 3 6 30.03 1017 10 16 0.00 0.00
5:52 am 05:52 Mostly Clear 65 18.3 60 15.6 84 84 SSE 5 7 30.04 1017 10 16 0.00 0.00
6:52 am 06:52 Partly Cloudy 68 20 62 16.7 81 81 S 6 9 30.04 1017 10 16 0.00 0.00
7:52 am 07:52 Mostly Sunny 72 22.2 64 17.8 76 76 Calm 30.05 1018 9 14 0.00 0.00
8:52 am 08:52 Mostly Sunny 77 25 64 17.8 64 64 Calm 30.06 1018 10 16 0.00 0.00
9:52 am 09:52 Partly Cloudy 81 27.2 63 17.2 54 54 SSE 6 9 30.08 1019 10 16 0.00 0.00
10:52 am 10:52 Mostly Sunny 84 28.9 61 16.1 46 46 SSW 6 9 30.08 1019 10 16 0.00 0.00
11:52 am 11:52 Partly Cloudy 86 30 61 16.1 43 43 WSW 7 11 30.06 1018 10 16 0.00 0.00
12:52 pm 12:52 Partly Cloudy 85 29.4 61 16.1 45 45 S 9 15 30.07 1018 10 16 0.00 0.00
1:52 pm 13:52 Mostly Cloudy 86 30 61 16.1 43 43 WSW 8 13 30.06 1018 10 16 0.00 0.00
2:52 pm 14:52 Mostly Cloudy 88 31.1 61 16.1 40 40 SSW 10 17 30.04 1017 10 16 0.00 0.00
3:52 pm 15:52 Mostly Cloudy 89 31.7 60 15.6 38 38 SSW 9 15 30.01 1016 10 16 0.00 0.00
4:52 pm 16:52 Mostly Cloudy 89 31.7 62 16.7 41 41 S 12 19 29.98 1015 10 16 0.00 0.00
5:52 pm 17:52 Cloudy 89 31.7 62 16.7 41 41 SSW 8 13 29.97 1015 10 16 0.00 0.00
6:52 pm 18:52 Mostly Cloudy 88 31.1 63 17.2 43 43 S 6 9 29.94 1014 10 16 0.00 0.00
7:52 pm 19:52 Mostly Cloudy 83 28.3 63 17.2 51 51 S 6 9 29.93 1014 10 16 0.00 0.00
8:52 pm 20:52 Mostly Cloudy 82 27.8 64 17.8 55 55 SSW 3 6 29.94 1014 10 16 0.00 0.00
9:52 pm 21:52 Cloudy 80 26.7 64 17.8 58 58 S 6 9 29.94 1014 10 16 0.00 0.00
10:52 pm 22:52 Cloudy 79 26.1 65 18.3 62 62 S 6 9 29.95 1014 10 16 0.00 0.00
11:52 pm 23:52 Cloudy 79 26.1 64 17.8 60 60 SSW 5 7 29.96 1015 10 16 0.00 0.00

Powered by AerisWeather